Weather History for EHRD - August, 2014

Change the Weather History Date:

Monday, August 11, 2014

  Actual Average Record
Temperature  
Mean Temperature 64 °F -  
Max Temperature 70 °F 68 °F 87 °F (1997)
Min Temperature 59 °F 54 °F 49 °F (2012)
Growing Degree Days 14 (Base 50)    
Moisture  
Dew Point 53 °F    
Average Humidity 65    
Maximum Humidity 82    
Minimum Humidity 43    
Precipitation  
Precipitation 0.08 in - - ()
Sea Level Pressure  
Sea Level Pressure 29.76 in    
Wind  
Wind Speed 17 mph ()    
Max Wind Speed 24 mph    
Max Gust Speed 36 mph    
Visibility 8.8 miles    
Events Rain , Thunderstorm    
Averages and records for this station are not official NWS values.
T = Trace of Precipitation, MM = Missing Value Source: Averaged Metar Reports

Daily Weather History Graph

Daily Weather History Graph

Search for Another Location

Airport or City:

Trip Planner

Search our weather history database for the weather conditions in past years. The results will help you decide how hot, cold, wet, or windy it might be!

Date:

Astronomy

Aug. 11, 2014 Rise Set
Actual Time 6:19 AM CEST 9:14 PM CEST
Civil Twilight 5:40 AM CEST 9:52 PM CEST
Nautical Twilight 4:49 AM CEST 10:43 PM CEST
Astronomical Twilight 3:45 AM CEST 11:46 PM CEST
Moon 9:14 PM CEST (8/11) 7:18 AM CEST (8/11)
Length of Visible Light 16h 12m
Length of Day
14h 54m
Full, 99% of the Moon is Illuminated
Aug 11
Full
Aug 17
Last Quarter
Aug 25
New
Sep 2
First Quarter
Sep 9
Full

Hourly Weather History & Observations

Time (CEST) Temp. Dew Point Humidity Pressure Visibility Wind Dir Wind Speed Gust Speed Precip Events Conditions
12:00 AM 64 °F 51 °F 54% 29.65 in 22 mi SW 17.9 mph - -   Partly Cloudy
12:25 AM 64.4 °F 50.0 °F 59% 29.62 in 6.2 mi SW 18.4 mph - N/A   Unknown
12:55 AM 62.6 °F 57.2 °F 82% 29.65 in 6.2 mi SW 16.1 mph - N/A   Mostly Cloudy
1:00 AM 63 °F 57 °F 74% 29.66 in 8 mi SSW 17.9 mph - -   Partly Cloudy
1:25 AM 62.6 °F 57.2 °F 82% 29.65 in 6.2 mi SW 19.6 mph - N/A   Scattered Clouds
1:55 AM 62.6 °F 55.4 °F 77% 29.65 in 6.2 mi SSW 19.6 mph 32.2 mph N/A   Partly Cloudy
2:00 AM 62 °F 56 °F 75% 29.67 in 8 mi SSW 20.1 mph - - Rain Light Rain Showers
2:25 AM 60.8 °F 55.4 °F 82% 29.65 in 6.2 mi SSW 20.7 mph - N/A   Partly Cloudy
2:55 AM 60.8 °F 55.4 °F 82% 29.65 in 6.2 mi SSW 19.6 mph - N/A   Drizzle
3:00 AM 61 °F 55 °F 75% 29.67 in 9 mi SSW 17.9 mph - - Rain Rain
3:25 AM 60.8 °F 55.4 °F 82% 29.65 in 6.2 mi SSW 19.6 mph - N/A   Scattered Clouds
3:55 AM 60.8 °F 55.4 °F 82% 29.68 in 6.2 mi SSW 19.6 mph - N/A   Drizzle
4:00 AM 60 °F 55 °F 78% 29.69 in 8 mi SW 22.4 mph - - Rain Light Drizzle
4:25 AM 60.8 °F 53.6 °F 77% 29.68 in 6.2 mi SW 20.7 mph - N/A   Mostly Cloudy
4:55 AM 60.8 °F 53.6 °F 77% 29.68 in 6.2 mi SW 23.0 mph - N/A   Partly Cloudy
5:00 AM 61 °F 54 °F 70% 29.70 in 12 mi SW 20.1 mph - - Rain Drizzle
5:25 AM 60.8 °F 53.6 °F 77% 29.68 in 6.2 mi SW 19.6 mph - N/A   Mostly Cloudy
5:55 AM 60.8 °F 53.6 °F 77% 29.71 in 6.2 mi SW 13.8 mph - N/A   Mostly Cloudy
6:00 AM 60 °F 54 °F 73% 29.72 in 12 mi SW 13.4 mph - -   Partly Cloudy
6:25 AM 60.8 °F 51.8 °F 72% 29.71 in 6.2 mi SW 16.1 mph - N/A   Partly Cloudy
6:55 AM 60.8 °F 51.8 °F 72% 29.71 in 6.2 mi WSW 17.3 mph - N/A   Partly Cloudy
7:00 AM 60 °F 51 °F 64% 29.74 in 19 mi WSW 17.9 mph - -   Partly Cloudy
7:25 AM 60.8 °F 51.8 °F 72% 29.74 in 6.2 mi WSW 17.3 mph - N/A   Partly Cloudy
7:55 AM 60.8 °F 51.8 °F 72% 29.74 in 6.2 mi WSW 17.3 mph - N/A   Partly Cloudy
8:00 AM 62 °F 52 °F 62% 29.75 in 16 mi SW 20.1 mph - -   Partly Cloudy
8:25 AM 62.6 °F 51.8 °F 68% 29.74 in 6.2 mi SW 18.4 mph - N/A   Partly Cloudy
8:55 AM 62.6 °F 51.8 °F 68% 29.74 in 6.2 mi SW 18.4 mph - N/A   Mostly Cloudy
9:00 AM 63 °F 51 °F 57% 29.77 in 14 mi WSW 20.1 mph - -   Partly Cloudy
9:25 AM 62.6 °F 51.8 °F 68% 29.77 in 6.2 mi WSW 17.3 mph - N/A   Partly Cloudy
9:55 AM 64.4 °F 50.0 °F 59% 29.77 in 6.2 mi WSW 18.4 mph - N/A   Scattered Clouds
10:00 AM 64 °F 54 °F 62% 29.79 in 16 mi SW 15.7 mph - -   Scattered Clouds
10:25 AM 64.4 °F 53.6 °F 68% 29.77 in 6.2 mi SW 17.3 mph - N/A   Mostly Cloudy
10:55 AM 64.4 °F 53.6 °F 68% 29.80 in 6.2 mi SW 17.3 mph - N/A   Mostly Cloudy
11:00 AM 66 °F 53 °F 53% 29.81 in 15 mi SW 20.1 mph - -   Overcast
11:25 AM 64.4 °F 50.0 °F 59% 29.80 in 6.2 mi WSW 17.3 mph - N/A   Scattered Clouds
11:55 AM 66.2 °F 48.2 °F 52% 29.80 in 6.2 mi WSW 21.9 mph - N/A   Unknown
12:00 PM 65 °F 50 °F 48% 29.82 in 19 mi WSW 17.9 mph - -   Scattered Clouds
12:25 PM 66.2 °F 51.8 °F 60% 29.80 in 6.2 mi SW 16.1 mph - N/A   Scattered Clouds
12:55 PM 66.2 °F 51.8 °F 60% 29.80 in 6.2 mi SW 20.7 mph - N/A   Mostly Cloudy
1:00 PM 69 °F 52 °F 43% 29.82 in 14 mi SW 20.1 mph - -   Mostly Cloudy
1:25 PM 69.8 °F 50.0 °F 49% 29.80 in 6.2 mi SW 24.2 mph - N/A   Scattered Clouds
1:55 PM 68.0 °F 50.0 °F 52% 29.80 in 6.2 mi SW 21.9 mph - N/A   Partly Cloudy
2:00 PM 67 °F 49 °F 43% 29.82 in 18 mi WSW 20.1 mph - -   Partly Cloudy
2:25 PM 68.0 °F 50.0 °F 52% 29.80 in 6.2 mi SW 21.9 mph 35.7 mph N/A   Mostly Cloudy
2:55 PM 68.0 °F 51.8 °F 56% 29.80 in 6.2 mi SSW 18.4 mph - N/A   Partly Cloudy
3:00 PM 68 °F 53 °F 48% 29.82 in 16 mi SSW 17.9 mph - - Rain Rain
3:25 PM 68.0 °F 51.8 °F 56% 29.80 in 6.2 mi SSW 24.2 mph - N/A   Partly Cloudy
3:55 PM 69.8 °F 51.8 °F 53% 29.80 in 6.2 mi SW 19.6 mph 31.1 mph N/A   Partly Cloudy
4:00 PM 67 °F 52 °F 47% 29.82 in 22 mi SW 20.1 mph - -   Overcast
4:25 PM 66.2 °F 51.8 °F 60% 29.80 in 6.2 mi WSW 20.7 mph - N/A   Scattered Clouds
4:55 PM 66.2 °F 57.2 °F 73% 29.80 in 6.2 mi SW 16.1 mph - N/A   Partly Cloudy
5:00 PM 67 °F 57 °F 62% 29.81 in 19 mi SW 17.9 mph - - Rain Rain
5:25 PM 64.4 °F 55.4 °F 73% 29.80 in 6.2 mi SW 20.7 mph 35.7 mph N/A Rain , Thunderstorm Light Thunderstorms and Rain
5:55 PM 66.2 °F 55.4 °F 68% 29.80 in 6.2 mi SW 18.4 mph - N/A   Partly Cloudy
6:00 PM 66 °F 57 °F 64% 29.81 in 18 mi SW 15.7 mph - - Thunderstorm Light Thunderstorm
6:25 PM 64.4 °F 55.4 °F 73% 29.80 in 6.2 mi SW 15.0 mph - N/A   Scattered Clouds
6:55 PM 64.4 °F 55.4 °F 73% 29.80 in 6.2 mi SW 23.0 mph 34.5 mph N/A Thunderstorm Thunderstorm
7:00 PM 66 °F 55 °F 60% 29.81 in 22 mi SW 20.1 mph - - Thunderstorm Light Thunderstorm
7:25 PM 64.4 °F 51.8 °F 64% 29.80 in 6.2 mi WSW 18.4 mph - N/A   Scattered Clouds
7:55 PM 66.2 °F 53.6 °F 64% 29.77 in 6.2 mi SW 15.0 mph - N/A   Mostly Cloudy
8:00 PM 65 °F 53 °F 55% 29.80 in 19 mi WSW 20.1 mph - - Thunderstorm Light Thunderstorm
8:25 PM 64.4 °F 53.6 °F 68% 29.77 in 6.2 mi SW 17.3 mph - N/A   Partly Cloudy
8:55 PM 64.4 °F 51.8 °F 64% 29.77 in 6.2 mi SW 19.6 mph - N/A   Unknown
9:00 PM 64 °F 52 °F 56% 29.79 in 19 mi SW 17.9 mph - -  
9:25 PM 62.6 °F 51.8 °F 68% 29.77 in 6.2 mi SW 13.8 mph - N/A   Mostly Cloudy
9:55 PM 64.4 °F 51.8 °F 64% 29.80 in 6.2 mi SW 15.0 mph - N/A   Mostly Cloudy
10:00 PM 64 °F 51 °F 54% 29.81 in 22 mi SW 20.1 mph - -   Partly Cloudy
10:25 PM 62.6 °F 51.8 °F 68% 29.80 in 6.2 mi SW 17.3 mph 28.8 mph N/A   Mostly Cloudy
10:55 PM 62.6 °F 51.8 °F 68% 29.80 in 6.2 mi SW 19.6 mph - N/A Thunderstorm Thunderstorm
11:00 PM 63 °F 51 °F 56% 29.80 in 19 mi SW 20.1 mph - - Thunderstorm Light Thunderstorm
11:25 PM 62.6 °F 51.8 °F 68% 29.80 in 6.2 mi SW 23.0 mph - N/A Thunderstorm Thunderstorm
11:55 PM 62.6 °F 51.8 °F 68% 29.77 in 6.2 mi SW 18.4 mph 29.9 mph N/A Thunderstorm Thunderstorm